Location: Newark
(44.6028°N, 124.0883°W)
Time: 05:23:22
(UTC+00:00)

Explorer 11/Cluster Stage 4 - Visible Passes

Search period start: 23 October 2019 00:00
Search period end: 02 November 2019 00:00
Orbit: 467 x 1259 km, 28.8° (Epoch: 22 October)

Date Brightness Start Highest point End Pass type
(mag) Time Alt. Az. Time Alt. Az. Time Alt. Az.
29 Oct 8.9 13:51:03 10° S 13:51:36 10° S 13:52:07 10° S visible
30 Oct 8.8 13:39:01 10° SSW 13:40:53 12° S 13:42:38 10° SSE visible
31 Oct 8.8 13:27:34 10° SSW 13:30:09 13° S 13:32:32 10° SSE visible
01 Nov 9.3 11:33:42 10° SSE 11:33:42 10° SSE 11:33:43 10° SSE visible
01 Nov 8.7 13:16:16 10° SW 13:19:25 15° S 13:22:15 10° SSE visible
